Location: Artiguedieu
(43.5000°N, 0.5454°E)
Time: 06:50:21
(UTC+00:00)

H-2A R/B - Pass Details

Date: 06 December 2020
Orbit: 529 x 651 km, 98.3° (Epoch: 19 January)

Event Time Altitude Azimuth Distance (km) Brightness Sun altitude
Rises 05:55:16 0° 16° (NNE) 2,681 5.8 -14.2°
Reaches altitude 10° 05:57:24 10° 19° (NNE) 1,785 4.9 -13.8°
Maximum altitude 06:01:12 67° 102° (ESE) 582 2.7 -13.2°
Drops below altitude 10° 06:05:02 10° 186° (S) 1,790 5.1 -12.5°
Sets 06:07:10 0° 189° (S) 2,689 6.0 -12.2°
